Regional Weather Roundup
Issued by NWS Albany, NY

Home | Current Version | Previous Version | Text Only | Print | Product List | Glossary On
Versions: 1 2 3 4 5 6 7 8 9 10 11 12 13 14 15 16 17 18 19 20 21 22 23 24 25 26 27 28 29 30 31 32 33 34 35 36 37 38 39 40 41 42 43 44 45 46 47 48 49 50
000
ASUS41 KALY 302310
RWRALY

NEW YORK STATE HOURLY WEATHER ROUNDUP
NATIONAL WEATHER SERVICE ALBANY NY
700 PM EDT SUN AUG 30 2015

NOTE: "FAIR" INDICATES FEW OR NO CLOUDS BELOW 12,000 FEET WITH NO
SIGNIFICANT WEATHER AND/OR NO OBSTRUCTIONS TO VISIBILITY.

NYZ032-033-038>043-046>054-057>066-NYZ062>081-310000-
EAST


CITY           SKY/WX    TMP DP  RH WIND       PRES   REMARKS
ALBANY         MOCLDY    79  64  60 SW5       30.00S
GLENS FALLS    CLOUDY    76  63  64 S5        29.99F
POUGHKEEPSIE   CLOUDY    76  71  85 CALM      30.00F
NEWBURGH       MOCLDY    77  70  78 CALM      30.03S
MONTGOMERY     MOCLDY    78  70  76 CALM      30.01F
WHITE PLAINS   MOCLDY    79  68  69 S3        30.02S
ISLIP          MOCLDY    78  67  68 SW12      30.01S
NEW YORK CITY  MOCLDY    83  67  58 S9        30.00S
CENTRAL PARK   MOCLDY    84  66  54 VRB3      30.03F
$$

NYZ005>009-017-018-044>046-055-056-310000-
CENTRAL


CITY           SKY/WX    TMP DP  RH WIND       PRES   REMARKS
FULTON         CLEAR     75  63  66 NW6       30.03R
SYRACUSE       MOCLDY    76  66  71 E3        30.01S
ROME           CLEAR     76  61  59 W7        30.02F
ELMIRA         CLOUDY    77  67  71 W5        30.03S
BINGHAMTON     CLOUDY    76  62  62 MISG      30.06S
MONTICELLO     PTCLDY    75  66  73 S6        30.07F
$$

NYZ026>034-041>043-310000-
NORTH


CITY           SKY/WX    TMP DP  RH WIND       PRES   REMARKS
WATERTOWN      CLEAR     72  61  68 W3        30.01F
FORT DRUM      NOT AVBL
MASSENA        CLOUDY    75  61  61 SW7       29.99F
SARANAC LAKE   CLOUDY    70  60  70 CALM      30.04S
PLATTSBURGH    CLOUDY    74  66  76 W3        29.98S
$$

NYZ001>004-010>016-019>021-310000-
WEST


CITY           SKY/WX    TMP DP  RH WIND       PRES   REMARKS
NIAGARA FALLS  PTCLDY    76  63  64 S12       30.02S
BUFFALO        PTCLDY    76  62  62 SW10      30.03F
DUNKIRK        CLEAR     76  65  68 SW5       30.04F
JAMESTOWN      MOCLDY    73  63  68 W5        30.09S
WELLSVILLE     CLOUDY    74  64  71 SW3       30.12R
ROCHESTER      PTCLDY    76  62  62 NE7       30.02F
PENN YAN       CLOUDY    76  66  71 CALM      30.05R
$$

             KEY
       WCI = WIND CHILL INDEX
       VSB = VISIBILITY
       HX  = HEAT INDEX
$$


USA.gov is the U.S. government's official web portal to all federal, state and local government web resources and services.